This demonstration page uses our WeatherBlox Daily Observations layout. Learn more.

Left ArrowRight Arrow

Hourly Observations for August 29, 2020

Temp ( °F °C ) Dew Point ( °F °C ) Humidity (%) Winds ( mph kmh ) Pressure ( in mb ) Visibility ( mi km ) Precip ( " mm )
12:15 am 00:15 Clear 72 22 70 21.2 95 95 SW 5 7 29.71 1006 10 16 0.00 0.00
12:35 am 00:35 Clear 72 22 70 21.2 95 95 SW 6 9 29.71 1006 10 16 0.00 0.00
12:55 am 00:55 Clear 71 21.7 70 21.2 97 97 SW 6 9 29.71 1006 10 16 0.00 0.00
1:15 am 01:15 Clear 71 21.7 70 21.2 97 97 SW 5 7 29.71 1006 10 16 0.00 0.00
1:35 am 01:35 Mostly Cloudy 72 22 71 21.5 97 97 SW 8 13 29.70 1006 10 16 0.00 0.00
1:55 am 01:55 Cloudy 72 22.1 71 21.6 97 97 SW 8 13 29.70 1006 10 16 0.00 0.00
2:15 am 02:15 Cloudy 72 22.1 71 21.6 97 97 SW 10 17 29.70 1006 10 16 0.00 0.00
2:35 am 02:35 Cloudy 72 22 71 21.6 98 98 SW 8 13 29.70 1006 10 16 0.00 0.00
2:55 am 02:55 Cloudy 71 21.6 70 21.1 97 97 SW 8 13 29.68 1005 10 16 0.00 0.00
3:15 am 03:15 Mostly Cloudy 70 21.3 69 20.8 97 97 SW 9 15 29.67 1005 10 16 0.00 0.00
3:35 am 03:35 Mostly Cloudy 70 21 69 20.7 98 98 SW 5 7 29.67 1005 10 16 0.00 0.00
3:55 am 03:55 Cloudy 70 21.1 69 20.8 98 98 SW 6 9 29.67 1005 7 11 0.00 0.00
4:15 am 04:15 Cloudy 70 21.1 70 21 99 99 WSW 10 17 29.67 1005 7 11 0.00 0.00
4:35 am 04:35 Cloudy 70 21.1 70 21 99 99 WSW 7 11 29.67 1005 7 11 0.00 0.00
4:55 am 04:55 Cloudy 70 21.3 70 21 98 98 WSW 13 20 29.67 1005 7 11 0.00 0.00
5:15 am 05:15 Mostly Cloudy with Light Rain 71 21.6 70 21 96 96 W 8 13 29.67 1005 10 16 0.00 0.00
5:35 am 05:35 Clear 70 21.3 68 20.2 93 93 W 6 9 29.66 1004 10 16 0.00 0.00
5:55 am 05:55 Clear 70 20.9 67 19.3 91 91 WNW 8 13 29.67 1005 10 16 0.00 0.00
6:15 am 06:15 Clear 68 20.2 66 18.8 92 92 WNW 6 9 29.69 1005 10 16 0.00 0.00
6:35 am 06:35 Partly Cloudy 68 19.9 66 18.8 93 93 WNW 6 9 29.70 1006 10 16 0.00 0.00
6:55 am 06:55 Partly Cloudy 68 19.8 66 19 95 95 WNW 7 11 29.70 1006 10 16 0.00 0.00
7:15 am 07:15 Partly Cloudy 67 19.5 66 19 97 97 WNW 6 9 29.71 1006 10 16 0.00 0.00
7:35 am 07:35 Sunny 67 19.6 66 19.1 97 97 WNW 5 7 29.72 1006 10 16 0.00 0.00
7:55 am 07:55 Partly Cloudy 68 20.2 67 19.6 96 96 WNW 6 9 29.72 1006 10 16 0.00 0.00
8:15 am 08:15 Mostly Cloudy 69 20.6 68 20 96 96 WNW 5 7 29.73 1007 10 16 0.00 0.00
8:35 am 08:35 Cloudy 70 21.2 68 19.8 92 92 NW 8 13 29.73 1007 10 16 0.00 0.00
8:55 am 08:55 Mostly Cloudy 71 21.8 68 20 90 90 NW 6 9 29.73 1007 10 16 0.00 0.00
9:15 am 09:15 Sunny 73 22.5 67 19.6 84 84 NNW 8 13 29.74 1007 10 16 0.00 0.00
9:35 am 09:35 Sunny 73 22.8 68 19.9 84 84 NNW 9 15 29.74 1007 10 16 0.00 0.00
9:55 am 09:55 Sunny 74 23.3 68 20 82 82 NNW 8 13 29.74 1007 10 16 0.00 0.00
10:15 am 10:15 Partly Cloudy 75 23.8 68 20.2 80 80 NNW 10 17 29.74 1007 7 11 0.00 0.00
10:35 am 10:35 Mostly Cloudy 74 23.5 68 20 81 81 NW 8 13 29.75 1007 10 16 0.00 0.00
10:55 am 10:55 Mostly Cloudy 75 23.8 68 19.8 78 78 NW 12 19 29.75 1008 10 16 0.00 0.00
11:15 am 11:15 Partly Cloudy 76 24.5 68 19.8 75 75 NNW 10 17 29.75 1008 10 16 0.00 0.00
11:35 am 11:35 Mostly Cloudy 75 24.1 67 19.3 75 75 NW 12 19 29.76 1008 10 16 0.00 0.00
11:55 am 11:55 Mostly Cloudy 77 24.9 67 19.7 73 73 NW 10 17 29.76 1008 10 16 0.00 0.00
12:15 pm 12:15 Mostly Cloudy 77 25.1 67 19.3 70 70 NW 8 13 29.77 1008 10 16 0.00 0.00
12:35 pm 12:35 Mostly Cloudy 78 25.4 68 20.2 73 73 NW 7 11 29.78 1008 10 16 0.00 0.00
12:55 pm 12:55 Mostly Cloudy 77 25 67 19.3 71 71 NW 7 11 29.78 1008 10 16 0.00 0.00
1:15 pm 13:15 Partly Cloudy 78 25.7 66 19.1 67 67 NW 9 15 29.78 1008 10 16 0.00 0.00
1:35 pm 13:35 Partly Cloudy 78 25.5 65 18.6 66 66 NW 10 17 29.79 1009 10 16 0.00 0.00
1:55 pm 13:55 Mostly Cloudy 79 25.9 66 19 66 66 NW 8 13 29.78 1008 10 16 0.00 0.00
2:15 pm 14:15 Mostly Cloudy 79 25.9 65 18.3 63 63 WNW 7 11 29.79 1009 10 16 0.00 0.00
2:35 pm 14:35 Partly Cloudy 78 25.7 65 18.5 65 65 NW 10 17 29.79 1009 10 16 0.00 0.00
2:55 pm 14:55 Partly Cloudy 79 25.9 65 18.6 64 64 WNW 9 15 29.79 1009 10 16 0.00 0.00
3:15 pm 15:15 Partly Cloudy 79 26.3 65 18.1 61 61 NW 12 19 29.79 1009 10 16 0.00 0.00
3:35 pm 15:35 Mostly Cloudy 79 26.1 64 17.6 60 60 WNW 10 17 29.78 1008 10 16 0.00 0.00
3:55 pm 15:55 Partly Cloudy 78 25.8 63 17.2 59 59 WNW 10 17 29.79 1009 10 16 0.00 0.00
4:15 pm 16:15 Sunny 78 25.6 63 17.3 60 60 WNW 10 17 29.78 1008 10 16 0.00 0.00
4:35 pm 16:35 Sunny 78 25.6 64 17.8 62 62 WNW 10 17 29.78 1008 10 16 0.00 0.00
4:55 pm 16:55 Mostly Cloudy 80 26.5 65 18.1 60 60 NW 9 15 29.78 1008 10 16 0.00 0.00
5:15 pm 17:15 Partly Cloudy 76 24.7 62 16.8 62 62 NW 9 15 29.79 1009 10 16 0.00 0.00
5:35 pm 17:35 Partly Cloudy 79 25.9 64 18 62 62 NW 13 20 29.79 1009 10 16 0.00 0.00
5:55 pm 17:55 Partly Cloudy 76 24.7 63 17.2 63 63 WNW 8 13 29.78 1009 10 16 0.00 0.00
6:15 pm 18:15 Sunny 76 24.6 63 17 63 63 NW 12 19 29.77 1008 10 16 0.00 0.00
6:35 pm 18:35 Sunny 76 24.6 64 17.5 65 65 NW 12 19 29.78 1009 10 16 0.00 0.00
6:55 pm 18:55 Sunny 76 24.2 62 16.6 63 63 NW 12 19 29.78 1009 10 16 0.00 0.00
7:15 pm 19:15 Sunny 74 23.4 62 16.7 66 66 NW 7 11 29.80 1009 10 16 0.00 0.00
7:35 pm 19:35 Sunny 73 22.6 62 16.6 69 69 NW 7 11 29.80 1009 10 16 0.00 0.00
7:55 pm 19:55 Sunny 71 21.4 62 16.4 73 73 W 3 6 29.81 1010 10 16 0.00 0.00
8:15 pm 20:15 Sunny 69 20.5 62 16.9 80 80 W 3 6 29.81 1010 10 16 0.00 0.00
8:35 pm 20:35 Clear 68 20 62 16.9 82 82 Calm 29.83 1010 10 16 0.00 0.00
8:55 pm 20:55 Clear 68 20 62 16.7 81 81 NW 5 7 29.83 1010 10 16 0.00 0.00
9:15 pm 21:15 Clear 68 19.8 62 16.7 82 82 WNW 3 6 29.84 1010 10 16 0.00 0.00
9:35 pm 21:35 Clear 67 19.6 62 16.8 84 84 WNW 3 6 29.84 1010 10 16 0.00 0.00
9:55 pm 21:55 Clear 67 19.2 62 16.7 86 86 Calm 29.85 1011 10 16 0.00 0.00
10:15 pm 22:15 Clear 66 18.9 62 16.5 86 86 NNW 5 7 29.85 1011 10 16 0.00 0.00
10:35 pm 22:35 Clear 65 18.5 61 16.2 87 87 NW 5 7 29.86 1011 10 16 0.00 0.00
10:55 pm 22:55 Clear 64 18 61 16.1 89 89 NNW 5 7 29.86 1011 10 16 0.00 0.00
11:15 pm 23:15 Clear 64 17.5 60 15.8 90 90 NNW 5 7 29.87 1012 10 16 0.00 0.00
11:35 pm 23:35 Clear 63 17.2 60 15.7 91 91 NNW 5 7 29.88 1012 10 16 0.00 0.00
11:55 pm 23:55 Clear 62 16.4 60 15.5 94 94 N 3 6 29.89 1012 10 16 0.00 0.00

Powered by AerisWeather